Location: High Meadows Obseravatory
(40.7417°N, 111.5713°W)
Time: 02:17:04
(UTC-07:00)

Tiangong - Visible Passes

Search period start: 10 December 2022 00:00
Search period end: 20 December 2022 00:00
Orbit: 385 x 392 km, 41.5° (Epoch: 09 December)

Date Brightness Start Highest point End Pass type
(mag) Time Alt. Az. Time Alt. Az. Time Alt. Az.
10 Dec -1.4 17:43:53 10° W 17:46:59 53° SSW 17:50:05 10° ESE visible
10 Dec 0.9 19:21:57 10° WSW 19:23:28 13° SW 19:23:28 13° SW visible
11 Dec 0.4 18:22:51 10° W 18:25:19 21° SSW 18:27:47 10° SSE visible
12 Dec -0.3 17:24:11 10° W 17:27:04 32° SSW 17:29:56 10° SE visible
13 Dec 1.1 18:03:58 10° WSW 18:05:10 12° SW 18:06:23 10° SSW visible
